Time,TemperatureF,DewpointF,PressureIn,WindDirection,WindDirectionDegrees,WindSpeedMPH,WindSpeedGustMPH,Humidity,HourlyPrecipIn,Conditions,Clouds,dailyrainin,SoftwareType,DateUTC
2013-01-18 00:00:00,-2.0,-15.3,30.09,South,180,0.0,0.0,52,0.00,,SKC,0.00,VWS V14.01,2013-01-18 06:00:00,
2013-01-18 00:20:00,-1.3,-14.6,30.09,ENE,68,0.0,0.0,52,0.00,,SKC,0.00,VWS V14.01,2013-01-18 06:20:00,
2013-01-18 00:40:00,-0.2,-13.6,30.09,ESE,112,0.0,4.7,52,0.00,,SKC,0.00,VWS V14.01,2013-01-18 06:40:00,
2013-01-18 01:00:00,1.2,-12.3,30.09,ESE,112,0.0,0.0,52,0.00,,SKC,0.00,VWS V14.01,2013-01-18 07:00:00,
2013-01-18 01:20:00,2.5,-11.1,30.06,SSE,158,0.0,2.3,52,0.00,,SKC,0.00,VWS V14.01,2013-01-18 07:20:00,
2013-01-18 01:40:00,3.4,-10.3,30.06,ESE,112,0.0,3.9,52,0.00,,SKC,0.00,VWS V14.01,2013-01-18 07:40:00,
2013-01-18 02:00:00,4.5,-9.3,30.06,ESE,112,0.0,0.0,52,0.00,,SKC,0.00,VWS V14.01,2013-01-18 08:00:00,
2013-01-18 02:20:00,5.4,-8.4,30.06,SE,135,0.0,3.5,52,0.00,,SKC,0.00,VWS V14.01,2013-01-18 08:20:00,
2013-01-18 02:40:00,5.9,-7.9,30.06,SSE,158,1.3,5.1,52,0.00,,SKC,0.00,VWS V14.01,2013-01-18 08:40:00,
2013-01-18 03:00:00,6.3,-7.6,30.03,SSW,202,1.0,5.5,52,0.00,,SKC,0.00,VWS V14.01,2013-01-18 09:00:00,
2013-01-18 03:20:00,6.8,-7.1,30.03,South,180,1.5,6.7,52,0.00,,SKC,0.00,VWS V14.01,2013-01-18 09:20:00,
2013-01-18 03:40:00,7.3,-6.6,30.00,South,180,3.3,6.3,52,0.00,,SKC,0.00,VWS V14.01,2013-01-18 09:40:00,
2013-01-18 04:00:00,7.7,-6.2,29.97,SSE,158,2.3,6.3,52,0.00,,SKC,0.00,VWS V14.01,2013-01-18 10:00:00,
2013-01-18 04:20:00,7.9,-6.1,29.97,SSE,158,2.3,9.4,52,0.00,,SKC,0.00,VWS V14.01,2013-01-18 10:20:00,
2013-01-18 04:40:00,7.9,-6.1,29.94,SE,135,2.6,9.4,52,0.00,,SKC,0.00,VWS V14.01,2013-01-18 10:40:00,
2013-01-18 05:00:00,8.2,-5.7,29.94,SSW,202,1.5,8.2,52,0.00,,SKC,0.00,VWS V14.01,2013-01-18 11:00:00,
2013-01-18 05:20:00,8.6,-5.4,29.94,SSE,158,2.3,14.1,52,0.00,,SKC,0.00,VWS V14.01,2013-01-18 11:20:00,
2013-01-18 05:40:00,9.0,-5.1,29.91,SSW,202,1.3,10.2,52,0.00,,SKC,0.00,VWS V14.01,2013-01-18 11:40:00,
2013-01-18 06:00:00,9.1,-4.9,29.91,ESE,112,3.6,9.4,52,0.00,,SKC,0.00,VWS V14.01,2013-01-18 12:00:00,
2013-01-18 06:20:00,9.5,-4.6,29.88,SSE,158,2.8,5.9,52,0.00,,SKC,0.00,VWS V14.01,2013-01-18 12:20:00,
2013-01-18 06:40:00,9.7,-4.4,29.85,ESE,112,0.0,10.2,52,0.00,,SKC,0.00,VWS V14.01,2013-01-18 12:40:00,
2013-01-18 07:00:00,10.0,-4.1,29.82,West,270,3.1,10.6,52,0.00,,SKC,0.00,VWS V14.01,2013-01-18 13:00:00,
2013-01-18 07:20:00,10.8,-3.4,29.82,SE,135,1.8,10.2,52,0.00,,SKC,0.00,VWS V14.01,2013-01-18 13:20:00,
2013-01-18 07:40:00,11.1,-3.1,29.82,ENE,68,3.3,11.4,52,0.00,,SKC,0.00,VWS V14.01,2013-01-18 13:40:00,
2013-01-18 08:00:00,11.7,-2.5,29.79,South,180,4.9,10.2,52,0.00,,SKC,0.00,VWS V14.01,2013-01-18 14:00:00,
2013-01-18 08:20:00,12.0,-2.2,29.76,WNW,292,3.1,11.4,52,0.00,,SKC,0.00,VWS V14.01,2013-01-18 14:20:00,
2013-01-18 08:40:00,12.6,-1.7,29.76,SSW,202,3.1,13.3,52,0.00,,SKC,0.00,VWS V14.01,2013-01-18 14:40:00,
2013-01-18 09:00:00,13.1,-1.2,29.76,SSW,202,3.9,15.7,52,0.00,,SKC,0.00,VWS V14.01,2013-01-18 15:00:00,
2013-01-18 09:20:00,14.0,10.6,29.76,WNW,292,2.8,10.2,86,0.00,,SKC,0.00,VWS V14.01,2013-01-18 15:20:00,
2013-01-18 09:40:00,14.9,11.2,29.74,WSW,248,4.9,15.3,85,0.00,,SKC,0.00,VWS V14.01,2013-01-18 15:40:00,
2013-01-18 10:00:00,15.4,11.5,29.74,SSE,158,0.0,14.1,84,0.00,,SKC,0.00,VWS V14.01,2013-01-18 16:00:00,
2013-01-18 10:20:00,16.5,12.3,29.74,WSW,248,3.1,11.7,83,0.00,,SKC,0.00,VWS V14.01,2013-01-18 16:20:00,
2013-01-18 10:40:00,16.9,12.4,29.74,SSE,158,0.0,10.2,82,0.00,,SKC,0.00,VWS V14.01,2013-01-18 16:40:00,
2013-01-18 11:00:00,18.3,13.5,29.71,SSW,202,2.6,8.2,81,0.00,,SKC,0.00,VWS V14.01,2013-01-18 17:00:00,
2013-01-18 11:20:00,19.9,14.8,29.71,SSE,158,2.8,6.7,80,0.00,,SKC,0.00,VWS V14.01,2013-01-18 17:20:00,
2013-01-18 11:40:00,20.5,14.7,29.68,East,90,1.8,8.6,78,0.00,,SKC,0.00,VWS V14.01,2013-01-18 17:40:00,
2013-01-18 12:00:00,21.2,15.4,29.68,SSE,158,0.0,7.0,78,0.00,,SKC,0.00,VWS V14.01,2013-01-18 18:00:00,
2013-01-18 12:20:00,21.9,16.1,29.68,South,180,0.0,7.0,78,0.00,,SKC,0.00,VWS V14.01,2013-01-18 18:20:00,
2013-01-18 12:40:00,22.8,17.0,29.65,ESE,112,0.0,6.3,78,0.00,,SKC,0.00,VWS V14.01,2013-01-18 18:40:00,
2013-01-18 13:00:00,23.9,17.5,29.62,South,180,1.0,6.7,76,0.00,,SKC,0.00,VWS V14.01,2013-01-18 19:00:00,
2013-01-18 13:20:00,24.8,18.3,29.62,ESE,112,1.0,5.1,76,0.00,,SKC,0.00,VWS V14.01,2013-01-18 19:20:00,
2013-01-18 13:40:00,25.3,18.5,29.62,East,90,0.0,2.7,75,0.00,,SKC,0.00,VWS V14.01,2013-01-18 19:40:00,
2013-01-18 14:00:00,25.9,18.8,29.62,ESE,112,0.0,3.9,74,0.00,,SKC,0.00,VWS V14.01,2013-01-18 20:00:00,
2013-01-18 14:20:00,27.5,20.0,29.59,SSW,202,1.3,5.5,73,0.00,,SKC,0.00,VWS V14.01,2013-01-18 20:20:00,
2013-01-18 14:40:00,28.0,20.5,29.59,SSE,158,0.0,4.3,73,0.00,,SKC,0.00,VWS V14.01,2013-01-18 20:40:00,
2013-01-18 15:00:00,28.4,20.5,29.59,SSE,158,0.0,4.3,72,0.00,,SKC,0.00,VWS V14.01,2013-01-18 21:00:00,
2013-01-18 15:20:00,28.4,20.2,29.59,SSE,158,0.0,0.0,71,0.00,,SKC,0.00,VWS V14.01,2013-01-18 21:20:00,
2013-01-18 15:40:00,27.9,20.0,29.59,SSW,202,0.0,0.0,72,0.00,,SKC,0.00,VWS V14.01,2013-01-18 21:40:00,
2013-01-18 16:00:00,27.5,20.3,29.62,SSE,158,0.0,0.0,74,0.00,,SKC,0.00,VWS V14.01,2013-01-18 22:00:00,
2013-01-18 16:20:00,27.0,20.1,29.59,East,90,3.1,4.7,75,0.00,,SKC,0.00,VWS V14.01,2013-01-18 22:20:00,
2013-01-18 16:40:00,26.4,20.2,29.59,NNW,338,1.0,4.7,77,0.00,,SKC,0.00,VWS V14.01,2013-01-18 22:40:00,
2013-01-18 17:00:00,25.9,20.0,29.59,ESE,112,0.0,1.6,78,0.00,,SKC,0.00,VWS V14.01,2013-01-18 23:00:00,
2013-01-18 17:20:00,25.3,19.8,29.59,SSW,202,0.0,0.0,79,0.00,,SKC,0.00,VWS V14.01,2013-01-18 23:20:00,
2013-01-18 17:40:00,25.0,20.0,29.62,SSW,202,0.0,0.0,81,0.00,,SKC,0.00,VWS V14.01,2013-01-18 23:40:00,
2013-01-18 18:00:00,24.6,19.9,29.59,East,90,0.0,0.0,82,0.00,,SKC,0.00,VWS V14.01,2013-01-19 00:00:00,
2013-01-18 18:20:00,24.4,20.0,29.62,SE,135,0.0,0.0,83,0.00,,SKC,0.00,VWS V14.01,2013-01-19 00:20:00,
2013-01-18 18:40:00,24.3,19.9,29.59,East,90,0.0,0.0,83,0.00,,SKC,0.00,VWS V14.01,2013-01-19 00:40:00,
2013-01-18 19:00:00,24.4,20.3,29.62,ESE,112,0.0,0.0,84,0.00,,SKC,0.00,VWS V14.01,2013-01-19 01:00:00,
2013-01-18 19:20:00,24.1,20.0,29.62,NNW,338,1.5,4.3,84,0.00,,SKC,0.00,VWS V14.01,2013-01-19 01:20:00,
2013-01-18 19:40:00,23.9,19.5,29.62,NNW,338,1.8,5.1,83,0.00,,SKC,0.00,VWS V14.01,2013-01-19 01:40:00,
2013-01-18 20:00:00,23.2,18.2,29.62,ENE,68,0.0,3.5,81,0.00,,SKC,0.00,VWS V14.01,2013-01-19 02:00:00,
2013-01-18 20:20:00,22.3,17.4,29.62,WNW,292,0.0,2.7,81,0.00,,SKC,0.00,VWS V14.01,2013-01-19 02:20:00,
2013-01-18 20:40:00,21.9,17.0,29.62,WNW,292,1.3,4.3,81,0.00,,SKC,0.00,VWS V14.01,2013-01-19 02:40:00,
2013-01-18 21:00:00,21.9,17.0,29.62,SSW,202,0.0,2.7,81,0.00,,SKC,0.00,VWS V14.01,2013-01-19 03:00:00,
2013-01-18 21:20:00,21.9,17.0,29.62,WNW,292,0.0,0.0,81,0.00,,SKC,0.00,VWS V14.01,2013-01-19 03:20:00,
2013-01-18 21:40:00,21.6,16.6,29.62,SSW,202,0.0,3.5,81,0.00,,SKC,0.00,VWS V14.01,2013-01-19 03:40:00,
2013-01-18 22:00:00,21.7,16.8,29.62,SSW,202,0.0,0.0,81,0.00,,SKC,0.00,VWS V14.01,2013-01-19 04:00:00,
2013-01-18 22:20:00,21.7,17.1,29.62,SSE,158,0.0,2.3,82,0.00,,SKC,0.00,VWS V14.01,2013-01-19 04:20:00,
2013-01-18 22:40:00,21.7,17.1,29.59,WSW,248,0.0,4.7,82,0.00,,SKC,0.00,VWS V14.01,2013-01-19 04:40:00,
2013-01-18 23:20:00,21.6,16.9,29.62,ESE,112,0.0,3.5,82,0.00,,SKC,0.00,VWS V14.01,2013-01-19 05:20:00,
2013-01-18 23:40:00,21.7,17.4,29.62,South,180,0.0,2.7,83,0.00,,SKC,0.00,VWS V14.01,2013-01-19 05:40:00,